Orbital Elements at Epoch 2459200.5 (2020-Dec-17.0) TDB
Reference: JPL 15 (heliocentric ecliptic J2000)
Element | Value | Uncertainty (1-sigma) | Units |
e | .06306961388375522 | 4.8899e-08 | |
a | 1.923703555005667 | 4.9111e-09 | au |
q | 1.802376314564652 | 9.2737e-08 | au |
i | 21.71610171522466 | 4.1452e-06 | deg |
node | 17.26121212367908 | 9.8648e-06 | deg |
peri | 14.92308079899287 | 3.6934e-05 | deg |
M | 55.46465491659965 | 3.3688e-05 | deg |
tp | 2459050.352030751707 (2020-Jul-19.85203075) | 9.115e-05 | TDB |
period | 974.5534162371239 2.67 | 3.732e-06 1.022e-08 | d yr |
n | .3693999672075506 | 1.4146e-09 | deg/d |
Q | 2.045030795446682 | 5.2208e-09 | au |
|
| | Orbit Determination Parameters
Additional Information
|